| time (UTC) | temp F | wind direction | speed knots | gust knots | rain 1hr in | rain 24hr in | rain mn in | humidity % | barometer mb |
| 20260504020903 | 47 | 28 | 0.0 | 2.6 | 0.00 | 0.04 | 0.00 | 69 | 1022.0 |
| 20260504014903 | 48 | 50 | 1.7 | 2.6 | 0.00 | 0.04 | 0.00 | 66 | 1022.0 |
| 20260504014405 | 48 | 61 | 1.7 | 1.7 | 0.00 | 0.04 | 0.00 | 65 | 1022.0 |
| 20260504013904 | 49 | 51 | 0.9 | 1.7 | 0.00 | 0.04 | 0.00 | 64 | 1022.0 |
| 20260504013405 | 49 | 47 | 0.9 | 1.7 | 0.00 | 0.04 | 0.00 | 64 | 1021.9 |
| 20260504012905 | 48 | 44 | 0.9 | 1.7 | 0.00 | 0.04 | 0.00 | 65 | 1021.9 |
| 20260504012405 | 48 | 44 | 0.9 | 1.7 | 0.00 | 0.04 | 0.00 | 65 | 1021.9 |
| 20260504011904 | 47 | 44 | 0.9 | 2.6 | 0.00 | 0.04 | 0.00 | 66 | 1021.9 |
| 20260504011403 | 47 | 52 | 0.9 | 2.6 | 0.00 | 0.04 | 0.00 | 66 | 1021.9 |
| 20260504010905 | 47 | 51 | 1.7 | 2.6 | 0.00 | 0.04 | 0.00 | 67 | 1021.8 |
| 20260504010404 | 47 | 57 | 0.9 | 1.7 | 0.00 | 0.04 | 0.00 | 67 | 1021.8 |
| 20260504005904 | 47 | 53 | 1.7 | 1.7 | 0.00 | 0.04 | 0.00 | 66 | 1021.7 |
| 20260504005404 | 48 | 47 | 1.7 | 1.7 | 0.00 | 0.04 | 0.00 | 66 | 1021.7 |
| 20260504004905 | 48 | 57 | 0.9 | 1.7 | 0.00 | 0.04 | 0.00 | 64 | 1021.7 |
| 20260504004403 | 49 | 56 | 0.9 | 1.7 | 0.00 | 0.04 | 0.00 | 63 | 1021.7 |
| 20260504003904 | 48 | 60 | 0.9 | 2.6 | 0.00 | 0.04 | 0.00 | 64 | 1021.7 |
| 20260504003405 | 48 | 57 | 1.7 | 2.6 | 0.00 | 0.04 | 0.00 | 64 | 1021.7 |
| 20260504002404 | 48 | 51 | 1.7 | 2.6 | 0.00 | 0.04 | 0.00 | 66 | 1021.7 |
| 20260504001905 | 48 | 52 | 1.7 | 2.6 | 0.00 | 0.04 | 0.00 | 66 | 1021.8 |
| 20260504001404 | 48 | 49 | 0.9 | 1.7 | 0.00 | 0.04 | 0.00 | 67 | 1021.8 |
| 20260504000404 | 49 | 68 | 0.0 | 0.9 | 0.00 | 0.04 | 0.00 | 66 | 1021.7 |
| 20260503235404 | 50 | 55 | 0.9 | 1.7 | 0.00 | 0.05 | 0.00 | 63 | 1021.8 |
| 20260503234904 | 50 | 57 | 0.9 | 1.7 | 0.00 | 0.05 | 0.00 | 64 | 1021.8 |
| 20260503234404 | 50 | 57 | 0.9 | 1.7 | 0.00 | 0.05 | 0.00 | 64 | 1021.7 |
| 20260503233905 | 49 | 47 | 0.9 | 1.7 | 0.00 | 0.05 | 0.00 | 64 | 1021.7 |
| 20260503233404 | 49 | 27 | 0.9 | 2.6 | 0.00 | 0.05 | 0.00 | 65 | 1021.7 |
| 20260503232404 | 49 | 17 | 1.7 | 2.6 | 0.00 | 0.05 | 0.00 | 65 | 1021.8 |
| 20260503231904 | 49 | 27 | 1.7 | 2.6 | 0.00 | 0.05 | 0.00 | 66 | 1021.8 |
| 20260503231403 | 49 | 21 | 1.7 | 2.6 | 0.00 | 0.05 | 0.00 | 66 | 1021.9 |
| 20260503225903 | 48 | 39 | 0.9 | 1.7 | 0.00 | 0.05 | 0.00 | 67 | 1022.0 |
| 20260503225403 | 48 | 32 | 0.0 | 0.9 | 0.00 | 0.05 | 0.00 | 67 | 1022.0 |
| 20260503224905 | 49 | 20 | 0.0 | 1.7 | 0.00 | 0.05 | 0.00 | 66 | 1021.9 |
| 20260503224405 | 49 | 20 | 0.0 | 1.7 | 0.00 | 0.05 | 0.00 | 65 | 1021.8 |
| 20260503223904 | 49 | 17 | 0.9 | 1.7 | 0.00 | 0.05 | 0.00 | 63 | 1021.8 |
| 20260503223404 | 49 | 9 | 0.9 | 1.7 | 0.00 | 0.05 | 0.00 | 62 | 1021.8 |
| 20260503222904 | 49 | 34 | 0.0 | 0.9 | 0.00 | 0.05 | 0.00 | 63 | 1021.7 |
| 20260503222405 | 49 | 39 | 0.0 | 0.9 | 0.00 | 0.06 | 0.00 | 63 | 1021.7 |
| 20260503221904 | 49 | 39 | 0.0 | 0.0 | 0.00 | 0.06 | 0.00 | 63 | 1021.7 |
| 20260503221403 | 49 | 39 | 0.0 | 0.9 | 0.00 | 0.06 | 0.00 | 62 | 1021.7 |
| 20260503215904 | 50 | 40 | 0.0 | 0.9 | 0.00 | 0.07 | 0.00 | 60 | 1021.7 |
| 20260503215404 | 51 | 40 | 0.0 | 0.9 | 0.00 | 0.07 | 0.00 | 61 | 1021.7 |
| 20260503214905 | 52 | 30 | 0.0 | 1.7 | 0.00 | 0.07 | 0.00 | 57 | 1021.6 |
| 20260503214404 | 52 | 30 | 0.9 | 1.7 | 0.00 | 0.07 | 0.00 | 55 | 1021.6 |
| 20260503213404 | 53 | 60 | 0.9 | 1.7 | 0.00 | 0.07 | 0.00 | 54 | 1021.6 |
| 20260503212903 | 52 | 46 | 0.9 | 1.7 | 0.00 | 0.07 | 0.00 | 55 | 1021.5 |
| 20260503212404 | 52 | 50 | 0.9 | 1.7 | 0.00 | 0.07 | 0.00 | 56 | 1021.6 |
| 20260503211904 | 52 | 56 | 0.9 | 1.7 | 0.00 | 0.07 | 0.00 | 56 | 1021.5 |
| 20260503210906 | 52 | 60 | 0.9 | 1.7 | 0.00 | 0.07 | 0.00 | 57 | 1021.5 |
| 20260503205405 | 53 | 40 | 0.9 | 1.7 | 0.00 | 0.07 | 0.07 | 55 | 1021.6 |
| 20260503204904 | 52 | 49 | 0.9 | 1.7 | 0.00 | 0.07 | 0.07 | 55 | 1021.6 |
| 20260503203903 | 52 | 77 | 0.9 | 1.7 | 0.00 | 0.07 | 0.07 | 57 | 1021.6 |
| 20260503203403 | 52 | 75 | 0.9 | 0.9 | 0.00 | 0.07 | 0.07 | 56 | 1021.7 |
| 20260503202406 | 52 | 67 | 0.0 | 1.7 | 0.00 | 0.07 | 0.07 | 58 | 1021.6 |
| 20260503201904 | 52 | 89 | 0.0 | 1.7 | 0.00 | 0.07 | 0.07 | 59 | 1021.5 |
| 20260503201404 | 52 | 50 | 0.0 | 4.3 | 0.00 | 0.07 | 0.07 | 59 | 1021.6 |
| 20260503200904 | 53 | 47 | 1.7 | 4.3 | 0.00 | 0.07 | 0.07 | 54 | 1021.6 |
| 20260503200404 | 53 | 46 | 0.9 | 2.6 | 0.00 | 0.07 | 0.07 | 56 | 1021.5 |
| 20260503195904 | 52 | 50 | 1.7 | 2.6 | 0.00 | 0.07 | 0.07 | 55 | 1021.6 |
| 20260503195404 | 52 | 40 | 0.9 | 2.6 | 0.00 | 0.07 | 0.07 | 57 | 1021.6 |
| 20260503194904 | 52 | 51 | 1.7 | 2.6 | 0.00 | 0.07 | 0.07 | 57 | 1021.5 |
| 20260503193404 | 53 | 58 | 0.9 | 1.7 | 0.00 | 0.07 | 0.07 | 57 | 1021.5 |
| 20260503191905 | 53 | 51 | 0.9 | 2.6 | 0.00 | 0.07 | 0.07 | 56 | 1021.5 |
| 20260503191404 | 53 | 50 | 0.9 | 2.6 | 0.00 | 0.07 | 0.07 | 56 | 1021.5 |
| 20260503190404 | 54 | 64 | 0.0 | 1.7 | 0.00 | 0.07 | 0.07 | 57 | 1021.5 |
| 20260503185405 | 54 | 53 | 0.9 | 2.6 | 0.00 | 0.07 | 0.07 | 55 | 1021.4 |
| 20260503184905 | 54 | 49 | 1.7 | 2.6 | 0.00 | 0.07 | 0.07 | 55 | 1021.4 |
| 20260503184403 | 54 | 97 | 0.0 | 1.7 | 0.00 | 0.07 | 0.07 | 56 | 1021.2 |
| 20260503183904 | 55 | 88 | 0.0 | 1.7 | 0.00 | 0.07 | 0.07 | 53 | 1021.2 |
| 20260503183404 | 55 | 39 | 0.0 | 1.7 | 0.00 | 0.07 | 0.07 | 55 | 1021.1 |
| 20260503182905 | 55 | 45 | 0.9 | 1.7 | 0.00 | 0.07 | 0.07 | 52 | 1021.1 |
| 20260503182406 | 55 | 77 | 0.0 | 0.9 | 0.00 | 0.07 | 0.07 | 52 | 1021.1 |
| 20260503181904 | 56 | 55 | 0.0 | 2.6 | 0.00 | 0.07 | 0.07 | 51 | 1020.9 |
| 20260503181405 | 56 | 34 | 0.0 | 4.3 | 0.00 | 0.07 | 0.07 | 50 | 1020.8 |
| 20260503180904 | 56 | 63 | 1.7 | 4.3 | 0.00 | 0.07 | 0.07 | 49 | 1020.7 |
| 20260503180404 | 56 | 46 | 1.7 | 5.2 | 0.00 | 0.07 | 0.07 | 49 | 1020.6 |
| 20260503175904 | 56 | 36 | 1.7 | 6.1 | 0.00 | 0.07 | 0.07 | 49 | 1020.6 |
| 20260503175405 | 57 | 40 | 1.7 | 7.0 | 0.00 | 0.07 | 0.07 | 49 | 1020.6 |
| 20260503174906 | 57 | 25 | 2.6 | 7.0 | 0.00 | 0.07 | 0.07 | 48 | 1020.6 |
| 20260503174404 | 57 | 41 | 2.6 | 6.1 | 0.00 | 0.07 | 0.07 | 48 | 1020.5 |
| 20260503172903 | 58 | 36 | 1.7 | 4.3 | 0.00 | 0.07 | 0.07 | 48 | 1020.4 |
| 20260503171904 | 58 | 43 | 2.6 | 4.3 | 0.00 | 0.07 | 0.07 | 46 | 1020.3 |
| 20260503171405 | 58 | 42 | 0.9 | 6.1 | 0.00 | 0.07 | 0.07 | 47 | 1020.3 |
| 20260503170904 | 59 | 38 | 1.7 | 6.1 | 0.00 | 0.07 | 0.07 | 46 | 1020.2 |
| 20260503170404 | 59 | 46 | 1.7 | 5.2 | 0.00 | 0.07 | 0.07 | 47 | 1020.1 |
| 20260503150905 | 64 | 313 | 0.9 | 6.1 | 0.00 | 0.07 | 0.07 | 39 | 1020.0 |
| 20260503131410 | 63 | 238 | 2.6 | 8.7 | 0.00 | 0.07 | 0.07 | 43 | 1020.6 |
| 20260503130904 | 63 | 253 | 2.6 | 8.7 | 0.00 | 0.07 | 0.07 | 44 | 1020.6 |
| 20260503130404 | 64 | 213 | 1.7 | 6.1 | 0.00 | 0.07 | 0.07 | 44 | 1020.6 |
| 20260503110403 | 61 | 228 | 0.9 | 6.1 | 0.00 | 0.07 | 0.07 | 50 | 1021.3 |
| 20260503090405 | 55 | 265 | 0.9 | 6.1 | 0.00 | 0.07 | 0.07 | 63 | 1022.1 |
| 20260503081405 | 59 | 20 | 0.9 | 2.6 | 0.00 | 0.07 | 0.07 | 52 | 1022.0 |
| 20260503080905 | 59 | 8 | 0.9 | 2.6 | 0.00 | 0.07 | 0.07 | 52 | 1022.0 |
| 20260503080404 | 59 | 353 | 0.9 | 2.6 | 0.00 | 0.07 | 0.07 | 51 | 1021.9 |
| 20260503072907 | 53 | 261 | 0.0 | 2.6 | 0.00 | 0.07 | 0.07 | 62 | 1022.0 |
| 20260503072406 | 53 | 280 | 0.9 | 5.2 | 0.00 | 0.07 | 0.07 | 62 | 1022.0 |
| 20260503071904 | 53 | 15 | 0.0 | 5.2 | 0.00 | 0.07 | 0.07 | 64 | 1022.0 |
| 20260503071403 | 53 | 23 | 2.6 | 6.1 | 0.00 | 0.07 | 0.07 | 62 | 1022.0 |
| 20260503070905 | 53 | 16 | 1.7 | 6.1 | 0.00 | 0.07 | 0.07 | 61 | 1022.0 |
| 20260503070404 | 52 | 20 | 1.7 | 5.2 | 0.00 | 0.07 | 0.07 | 61 | 1021.9 |
| 20260503054906 | 49 | 241 | 0.0 | 1.7 | 0.00 | 0.07 | 0.07 | 84 | 1021.5 |
| 20260503054404 | 48 | 233 | 0.0 | 2.6 | 0.00 | 0.07 | 0.07 | 84 | 1021.6 |
| 20260503053906 | 48 | 233 | 0.9 | 2.6 | 0.00 | 0.07 | 0.07 | 85 | 1021.6 |
| 20260503053403 | 48 | 256 | 0.9 | 2.6 | 0.00 | 0.07 | 0.07 | 85 | 1021.6 |
| 20260503052905 | 48 | 224 | 0.0 | 1.7 | 0.00 | 0.07 | 0.07 | 85 | 1021.6 |
| 20260503051904 | 48 | 325 | 0.0 | 2.6 | 0.01 | 0.07 | 0.07 | 85 | 1021.5 |
| 20260503051404 | 48 | 305 | 0.0 | 2.6 | 0.03 | 0.07 | 0.07 | 85 | 1021.4 |
| 20260503050905 | 48 | 36 | 0.0 | 0.9 | 0.04 | 0.07 | 0.07 | 85 | 1021.2 |
| 20260503045905 | 48 | 36 | 0.0 | 0.9 | 0.04 | 0.07 | 0.07 | 85 | 1021.2 |
| 20260503045403 | 48 | 36 | 0.0 | 0.9 | 0.04 | 0.07 | 0.07 | 84 | 1021.1 |
| 20260503044404 | 48 | 29 | 0.0 | 0.9 | 0.04 | 0.07 | 0.07 | 84 | 1021.0 |
| 20260503043905 | 48 | 32 | 0.0 | 0.9 | 0.04 | 0.07 | 0.07 | 84 | 1021.0 |
| 20260503043405 | 48 | 6 | 0.0 | 0.9 | 0.04 | 0.07 | 0.07 | 83 | 1020.9 |
| 20260503042905 | 49 | 5 | 0.0 | 0.9 | 0.04 | 0.07 | 0.07 | 81 | 1020.9 |
| 20260503042404 | 49 | 30 | 0.0 | 1.7 | 0.04 | 0.07 | 0.07 | 81 | 1021.0 |
| 20260503041904 | 49 | 30 | 0.0 | 2.6 | 0.03 | 0.06 | 0.06 | 79 | 1020.9 |
| 20260503041403 | 49 | 345 | 0.9 | 2.6 | 0.01 | 0.04 | 0.04 | 78 | 1020.8 |
| 20260503040903 | 48 | 7 | 0.0 | 1.7 | 0.00 | 0.03 | 0.03 | 81 | 1020.8 |
| 20260503035906 | 48 | 25 | 0.0 | 1.7 | 0.00 | 0.03 | 0.03 | 80 | 1020.7 |
| 20260503035405 | 47 | 29 | 0.9 | 1.7 | 0.00 | 0.03 | 0.03 | 78 | 1020.7 |
| 20260503034903 | 47 | 354 | 0.0 | 0.9 | 0.00 | 0.03 | 0.03 | 78 | 1020.5 |
| 20260503034403 | 48 | 294 | 0.0 | 5.2 | 0.00 | 0.03 | 0.03 | 77 | 1020.4 |
| 20260503033904 | 48 | 24 | 0.9 | 5.2 | 0.00 | 0.03 | 0.03 | 76 | 1020.3 |
| 20260503033405 | 48 | 50 | 1.7 | 5.2 | 0.00 | 0.03 | 0.03 | 75 | 1020.3 |
| 20260503032904 | 48 | 31 | 1.7 | 4.3 | 0.00 | 0.03 | 0.03 | 75 | 1020.3 |
| 20260503032404 | 48 | 32 | 0.9 | 2.6 | 0.00 | 0.03 | 0.03 | 75 | 1020.2 |
| 20260503031905 | 48 | 39 | 0.9 | 5.2 | 0.00 | 0.03 | 0.03 | 75 | 1020.2 |
| 20260503031403 | 48 | 42 | 0.9 | 8.7 | 0.00 | 0.03 | 0.03 | 75 | 1020.2 |
| 20260503030403 | 47 | 45 | 3.5 | 6.1 | 0.00 | 0.03 | 0.03 | 77 | 1020.3 |
| 20260503025904 | 47 | 34 | 1.7 | 4.3 | 0.00 | 0.03 | 0.03 | 78 | 1020.2 |
| 20260503024405 | 47 | 47 | 0.9 | 5.2 | 0.00 | 0.03 | 0.03 | 77 | 1020.6 |
| 20260503023904 | 47 | 25 | 1.7 | 4.3 | 0.00 | 0.03 | 0.03 | 77 | 1020.6 |
| 20260503023405 | 47 | 39 | 0.0 | 2.6 | 0.00 | 0.03 | 0.03 | 78 | 1020.6 |
| 20260503022904 | 46 | 44 | 0.9 | 2.6 | 0.00 | 0.03 | 0.03 | 79 | 1020.6 |
| 20260503022404 | 46 | 24 | 0.9 | 2.6 | 0.00 | 0.03 | 0.03 | 81 | 1020.6 |
| 20260503021904 | 45 | 37 | 1.7 | 2.6 | 0.00 | 0.03 | 0.03 | 82 | 1020.5 |